TimeCST,TemperatureF,Dew PointF,Humidity,Sea Level PressureIn,VisibilityMPH,Wind Direction,Wind SpeedMPH,Gust SpeedMPH,PrecipitationIn,Events,Conditions,WindDirDegrees,DateUTC
12:52 AM,35.1,27.0,72,30.23,10.0,South,8.1,-,N/A,,Clear,170,2012-12-06 06:52:00
1:52 AM,35.1,27.0,72,30.24,10.0,South,8.1,-,N/A,,Partly Cloudy,170,2012-12-06 07:52:00
2:52 AM,35.1,27.0,72,30.22,10.0,South,8.1,-,N/A,,Clear,170,2012-12-06 08:52:00
3:52 AM,34.0,27.0,75,30.18,10.0,SSE,4.6,-,N/A,,Partly Cloudy,160,2012-12-06 09:52:00
4:52 AM,34.0,27.0,75,30.17,10.0,SSE,8.1,-,N/A,,Clear,160,2012-12-06 10:52:00
5:52 AM,34.0,27.0,75,30.15,10.0,SSE,10.4,-,N/A,,Clear,160,2012-12-06 11:52:00
6:52 AM,34.0,27.0,75,30.15,10.0,South,8.1,-,N/A,,Clear,170,2012-12-06 12:52:00
7:52 AM,34.0,27.0,75,30.13,10.0,South,9.2,-,N/A,,Partly Cloudy,180,2012-12-06 13:52:00
8:52 AM,36.0,28.0,73,30.12,10.0,South,10.4,-,N/A,,Mostly Cloudy,170,2012-12-06 14:52:00
9:52 AM,37.0,28.9,73,30.11,9.0,South,10.4,-,N/A,,Mostly Cloudy,180,2012-12-06 15:52:00
10:52 AM,39.0,30.9,73,30.06,8.0,South,11.5,-,N/A,,Clear,190,2012-12-06 16:52:00
11:52 AM,41.0,32.0,70,30.03,9.0,SSW,11.5,-,N/A,,Mostly Cloudy,200,2012-12-06 17:52:00
12:52 PM,43.0,32.0,65,29.98,9.0,South,10.4,-,N/A,,Mostly Cloudy,180,2012-12-06 18:52:00
1:52 PM,44.1,33.1,65,29.95,10.0,SSW,9.2,-,N/A,,Overcast,200,2012-12-06 19:52:00
2:52 PM,43.0,35.1,74,29.95,9.0,South,6.9,-,0.00,Rain,Light Rain,180,2012-12-06 20:52:00
3:52 PM,44.1,34.0,68,29.93,9.0,South,13.8,-,0.00,,Overcast,170,2012-12-06 21:52:00
4:52 PM,44.1,34.0,68,29.93,10.0,South,11.5,-,N/A,,Overcast,190,2012-12-06 22:52:00
5:52 PM,44.1,35.1,71,29.90,10.0,South,13.8,-,0.00,Rain,Light Rain,180,2012-12-06 23:52:00
6:52 PM,43.0,36.0,76,29.94,10.0,SW,5.8,-,0.00,,Overcast,220,2012-12-07 00:52:00
7:52 PM,42.1,36.0,79,29.94,10.0,SW,5.8,-,N/A,,Overcast,220,2012-12-07 01:52:00
8:52 PM,42.1,37.0,82,29.94,9.0,SSW,5.8,-,N/A,,Mostly Cloudy,200,2012-12-07 02:52:00
9:52 PM,44.1,37.9,79,29.92,9.0,SSW,9.2,-,N/A,,Overcast,210,2012-12-07 03:52:00
10:52 PM,44.1,39.0,82,29.93,9.0,SW,4.6,-,N/A,,Overcast,230,2012-12-07 04:52:00
11:52 PM,44.1,37.9,79,29.92,9.0,SW,3.5,-,N/A,,Overcast,230,2012-12-07 05:52:00